Weather History for Port Huron, MI

Change the Weather History Date:

Monday, February 18, 2013

  Actual Average (KMTC) Record (KMTC)
Temperature  
Mean Temperature 20 °F -  
Max Temperature 41 °F 35 °F 56 °F (1949)
Min Temperature -2 °F 21 °F -3 °F (1979)
Degree Days  
Heating Degree Days 46    
Moisture  
Dew Point 16 °F    
Average Humidity 71    
Maximum Humidity 85    
Minimum Humidity 60    
Precipitation  
Precipitation 0.00 in - - ()
Sea Level Pressure  
Sea Level Pressure 29.99 in    
Wind  
Wind Speed 7 mph (SSE)    
Max Wind Speed 20 mph    
Max Gust Speed 29 mph    
Visibility 10 miles    
Events Rain    
Averages and records for this station are not official NWS values.
T = Trace of Precipitation, MM = Missing Value Source: NWS Daily Summary

Daily Weather History Graph

Daily Weather History Graph

Search for Another Location

Airport:

Trip Planner

Search our weather history database for the weather conditions in past years. The results will help you decide how hot, cold, wet, or windy it might be!

Date:

Astronomy

Feb. 18, 2013 Rise Set
Actual Time 7:22 AM EST 6:05 PM EST
Civil Twilight 6:53 AM EST 6:34 PM EST
Nautical Twilight 6:20 AM EST 7:07 PM EST
Astronomical Twilight 5:48 AM EST 7:40 PM EST
Moon 11:46 AM EST (2/18) 2:05 AM EST (2/18)
Length of Visible Light 11h 40m
Length of Day
10h 43m
First Quarter, 58% of the Moon is Illuminated
Feb 18
First Quarter
Feb 25
Full
Mar 4
Last Quarter
Mar 11
New
Mar 19
First Quarter

Hourly Weather History & Observations

Time (EST) Temp. Windchill Dew Point Humidity Pressure Visibility Wind Dir Wind Speed Gust Speed Precip Events Conditions
12:18 AM -2.2 °F - -5.8 °F 85% 30.21 in 10.0 mi Calm Calm - N/A   Clear
12:38 AM -0.4 °F - -4.0 °F 85% 30.20 in 10.0 mi Calm Calm - N/A   Clear
12:58 AM -0.4 °F - -5.8 °F 78% 30.21 in 10.0 mi Calm Calm - N/A   Clear
1:18 AM -0.4 °F - -5.8 °F 78% 30.22 in 10.0 mi Calm Calm - N/A   Clear
1:38 AM -2.2 °F - -5.8 °F 85% 30.22 in 10.0 mi Calm Calm - N/A   Clear
1:58 AM -2.2 °F - -5.8 °F 85% 30.22 in 10.0 mi Calm Calm - N/A   Clear
2:18 AM -2.2 °F - -5.8 °F 85% 30.22 in 10.0 mi Calm Calm - N/A   Clear
2:38 AM 1.4 °F - -4.0 °F 78% 30.22 in 10.0 mi Calm Calm - N/A   Clear
2:58 AM 5.0 °F - -0.4 °F 78% 30.21 in 10.0 mi Calm Calm - N/A   Clear
3:18 AM 5.0 °F -2.1 °F 1.4 °F 85% 30.20 in 10.0 mi SE 3.5 mph - N/A   Clear
3:38 AM 10.4 °F 0.8 °F 5.0 °F 79% 30.19 in 10.0 mi SE 5.8 mph - N/A   Scattered Clouds
3:58 AM 10.4 °F 4.0 °F 3.2 °F 73% 30.19 in 10.0 mi SSE 3.5 mph - N/A   Clear
4:18 AM 10.4 °F 4.0 °F 3.2 °F 73% 30.19 in 10.0 mi SE 3.5 mph - N/A   Clear
4:38 AM 10.4 °F 4.0 °F 3.2 °F 73% 30.19 in 10.0 mi SE 3.5 mph - N/A   Clear
4:58 AM 14.0 °F 6.5 °F 6.8 °F 73% 30.19 in 10.0 mi SE 4.6 mph - N/A   Clear
5:18 AM 14.0 °F 8.2 °F 6.8 °F 73% 30.19 in 10.0 mi SE 3.5 mph - N/A   Clear
5:38 AM 14.0 °F 5.1 °F 6.8 °F 73% 30.18 in 10.0 mi SE 5.8 mph - N/A   Clear
5:58 AM 15.8 °F 6.1 °F 8.6 °F 73% 30.17 in 10.0 mi SE 6.9 mph - N/A   Clear
6:18 AM 15.8 °F 6.1 °F 10.4 °F 79% 30.16 in 10.0 mi SE 6.9 mph - N/A   Clear
6:38 AM 15.8 °F 7.2 °F 10.4 °F 79% 30.16 in 10.0 mi SE 5.8 mph - N/A   Clear
6:58 AM 15.8 °F 7.2 °F 10.4 °F 79% 30.15 in 10.0 mi SE 5.8 mph - N/A   Clear
7:38 AM 17.6 °F 8.2 °F 12.2 °F 79% 30.14 in 10.0 mi SSE 6.9 mph - N/A   Scattered Clouds
7:58 AM 19.4 °F 10.4 °F 14.0 °F 80% 30.13 in 10.0 mi SE 6.9 mph - N/A   Scattered Clouds
8:18 AM 21.2 °F 10.9 °F 14.0 °F 74% 30.12 in 10.0 mi SE 9.2 mph - N/A   Overcast
8:38 AM 21.2 °F 10.9 °F 15.8 °F 80% 30.12 in 10.0 mi SSE 9.2 mph - N/A   Overcast
8:58 AM 23.0 °F 11.7 °F 15.8 °F 74% 30.11 in 10.0 mi SSE 11.5 mph - N/A   Overcast
9:18 AM 23.0 °F 11.7 °F 17.6 °F 80% 30.10 in 10.0 mi SSE 11.5 mph - N/A   Overcast
9:38 AM 24.8 °F 11.9 °F 17.6 °F 74% 30.09 in 10.0 mi SSE 16.1 mph - N/A   Overcast
9:58 AM 24.8 °F 12.4 °F 17.6 °F 74% 30.07 in 10.0 mi SSE 15.0 mph 23.0 mph N/A   Mostly Cloudy
10:18 AM 26.6 °F 13.1 °F 17.6 °F 69% 30.07 in 10.0 mi SSE 19.6 mph 23.0 mph N/A   Scattered Clouds
10:38 AM 26.6 °F 14.3 °F 17.6 °F 69% 30.05 in 10.0 mi SSE 16.1 mph 28.8 mph N/A   Scattered Clouds
10:58 AM 28.4 °F 17.5 °F 17.6 °F 64% 30.05 in 10.0 mi SSE 13.8 mph 19.6 mph N/A   Clear
11:18 AM 28.4 °F 16.6 °F 17.6 °F 64% 30.04 in 10.0 mi SSE 16.1 mph 23.0 mph N/A   Clear
11:38 AM 28.4 °F 17.0 °F 17.6 °F 64% 30.03 in 10.0 mi SSE 15.0 mph 20.7 mph N/A   Clear
11:58 AM 28.4 °F 18.5 °F 17.6 °F 64% 30.01 in 10.0 mi SSE 11.5 mph 20.7 mph N/A   Clear
12:18 PM 28.4 °F 17.0 °F 19.4 °F 69% 29.99 in 10.0 mi SE 15.0 mph 23.0 mph N/A   Clear
12:38 PM 30.2 °F 18.9 °F 19.4 °F 64% 29.98 in 10.0 mi SE 16.1 mph 21.9 mph N/A   Clear
12:58 PM 30.2 °F 18.5 °F 19.4 °F 64% 29.97 in 10.0 mi SSE 17.3 mph 21.9 mph N/A   Clear
1:18 PM 30.2 °F 19.8 °F 19.4 °F 64% 29.96 in 10.0 mi SSE 13.8 mph 26.5 mph N/A   Clear
1:38 PM 30.2 °F 19.3 °F 19.4 °F 64% 29.95 in 10.0 mi SSE 15.0 mph 24.2 mph N/A   Clear
1:58 PM 32.0 °F 20.1 °F 19.4 °F 60% 29.93 in 7.0 mi South 19.6 mph 27.6 mph N/A   Clear
2:18 PM 32.0 °F 21.6 °F 19.4 °F 60% 29.92 in 10.0 mi South 15.0 mph 27.6 mph N/A   Clear
2:38 PM 32.0 °F 20.8 °F 21.2 °F 64% 29.91 in 10.0 mi SSE 17.3 mph 25.3 mph N/A   Clear
2:58 PM 32.0 °F 21.2 °F 21.2 °F 64% 29.91 in 10.0 mi SSE 16.1 mph 23.0 mph N/A   Clear
3:18 PM 32.0 °F 22.5 °F 21.2 °F 64% 29.90 in 10.0 mi SSE 12.7 mph 26.5 mph N/A   Clear
3:38 PM 33.8 °F 23.5 °F 21.2 °F 60% 29.89 in 10.0 mi SSE 16.1 mph 24.2 mph N/A   Clear
3:58 PM 33.8 °F 25.8 °F 21.2 °F 60% 29.88 in 10.0 mi SSE 10.4 mph 26.5 mph N/A   Clear
4:18 PM 33.8 °F 23.2 °F 23.0 °F 65% 29.85 in 10.0 mi SSE 17.3 mph 25.3 mph N/A   Clear
4:38 PM 33.8 °F 23.2 °F 23.0 °F 65% 29.84 in 10.0 mi SSE 17.3 mph 24.2 mph N/A   Clear
4:58 PM 33.8 °F 24.3 °F 23.0 °F 65% 29.84 in 10.0 mi SSE 13.8 mph 23.0 mph N/A   Clear
5:18 PM 33.8 °F 23.5 °F 23.0 °F 65% 29.82 in 10.0 mi SSE 16.1 mph 20.7 mph N/A   Clear
5:38 PM 33.8 °F 25.3 °F 24.8 °F 70% 29.81 in 10.0 mi SSE 11.5 mph 19.6 mph N/A   Clear
6:18 PM 35.6 °F 27.1 °F 24.8 °F 65% 29.81 in 10.0 mi South 12.7 mph 17.3 mph N/A   Clear
6:38 PM 35.6 °F 27.5 °F 26.6 °F 70% 29.80 in 10.0 mi South 11.5 mph 17.3 mph N/A   Clear
6:58 PM 37.4 °F 29.3 °F 26.6 °F 65% 29.79 in 10.0 mi SSE 12.7 mph 17.3 mph N/A   Mostly Cloudy
7:18 PM 37.4 °F 28.9 °F 26.6 °F 65% 29.79 in 10.0 mi SSE 13.8 mph 18.4 mph N/A   Overcast
7:38 PM 39.2 °F 32.5 °F 28.4 °F 65% 29.79 in 10.0 mi SSE 10.4 mph 17.3 mph N/A   Overcast
7:58 PM 39.2 °F 32.5 °F 28.4 °F 65% 29.78 in 10.0 mi SSE 10.4 mph - N/A   Overcast
8:18 PM 39.2 °F 32.0 °F 28.4 °F 65% 29.77 in 10.0 mi SSE 11.5 mph - N/A   Overcast
8:38 PM 39.2 °F 32.0 °F 28.4 °F 65% 29.76 in 10.0 mi SSE 11.5 mph 16.1 mph N/A   Overcast
9:18 PM 39.2 °F 32.0 °F 30.2 °F 70% 29.73 in 10.0 mi SSE 11.5 mph - N/A   Scattered Clouds
9:38 PM 39.2 °F 33.0 °F 30.2 °F 70% 29.72 in 10.0 mi SSE 9.2 mph - N/A   Clear
9:58 PM 39.2 °F 33.0 °F 30.2 °F 70% 29.70 in 10.0 mi South 9.2 mph - N/A   Scattered Clouds
10:18 PM 41.0 °F 34.7 °F 30.2 °F 65% 29.69 in 10.0 mi SSE 10.4 mph 18.4 mph N/A   Light Drizzle
10:38 PM 41.0 °F 34.3 °F 32.0 °F 70% 29.69 in 10.0 mi South 11.5 mph - N/A Rain Light Rain
10:58 PM 41.0 °F 35.8 °F 32.0 °F 70% 29.69 in 10.0 mi South 8.1 mph - N/A Rain Light Rain
11:18 PM 41.0 °F 34.7 °F 32.0 °F 70% 29.67 in 10.0 mi SSE 10.4 mph - N/A Rain Rain
11:58 PM 41.0 °F 34.3 °F 32.0 °F 70% 29.64 in 10.0 mi South 11.5 mph - N/A   Overcast